INTELSAT 17 (IS-17)

Last updated on Thu Nov 21 2024 00:02:41 GMT+0000 (Coordinated Universal Time)

1 37238U 10065B 24325.12341330 -.00000001 00000+0 00000+0 0 9998 2 37238 0.0124 289.3271 0002084 313.6237 287.1455 1.00273896 47484
UTC large
Height (km)
Speed (km/s)
/
Latitude / Longitude
Inclination (degrees)
Orbital Period (minutes)
Azimuth
Elevation
Range (km)
Doppler Factor

Next 0 passes for location: London (51.5072 / 0.1276)

Sorry there are no passes over London.